Weather History for New Delhi, India

Change the Weather History Date:

Thursday, October 3, 2013

  Actual Average Record
Temperature  
Mean Temperature 83 °F -  
Max Temperature 91 °F 87 °F 102 °F (2007)
Min Temperature 75 °F 66 °F 69 °F (1997)
Cooling Degree Days 18    
Growing Degree Days 33 (Base 50)    
Moisture  
Dew Point 69 °F    
Average Humidity 66    
Maximum Humidity 83    
Minimum Humidity 46    
Precipitation  
Precipitation 0.00 in - - ()
Sea Level Pressure  
Sea Level Pressure 29.82 in    
Wind  
Wind Speed 7 mph ()    
Max Wind Speed 15 mph    
Max Gust Speed -    
Visibility 2.3 miles    
Events      
Averages and records for this station are not official NWS values.
T = Trace of Precipitation, MM = Missing Value Source: Averaged Metar Reports

Daily Weather History Graph

Daily Weather History Graph

Search for Another Location

Airport:

Trip Planner

Search our weather history database for the weather conditions in past years. The results will help you decide how hot, cold, wet, or windy it might be!

Date:

Astronomy

Oct. 03, 2013 Rise Set
Actual Time 6:15 AM IST 6:05 PM IST
Civil Twilight 5:51 AM IST 6:28 PM IST
Nautical Twilight 5:24 AM IST 6:56 PM IST
Astronomical Twilight 4:57 AM IST 7:23 PM IST
Moon 4:27 AM IST (10/3) 4:54 PM IST (10/3)
Length of Visible Light 12h 36m
Length of Day
11h 49m
Waning Crescent, 4% of the Moon is Illuminated
Oct 3
Waning Crescent
Oct 5
New
Oct 12
First Quarter
Oct 19
Full
Oct 27
Last Quarter

Hourly Weather History & Observations

Time (IST) Temp. Heat Index Dew Point Humidity Pressure Visibility Wind Dir Wind Speed Gust Speed Precip Events Conditions
12:00 AM 78.8 °F - 69.8 °F 74% 29.86 in 2.5 mi East 5.8 mph - N/A   Haze
12:30 AM 78.8 °F - 69.8 °F 74% 29.86 in 2.5 mi East 6.9 mph - N/A   Haze
1:00 AM 78.8 °F - 68.0 °F 69% 29.86 in 2.5 mi East 8.1 mph - N/A   Haze
1:30 AM 78.8 °F - 68.0 °F 69% 29.86 in 2.5 mi East 8.1 mph - N/A   Haze
2:00 AM 78.8 °F - 68.0 °F 69% 29.83 in 2.5 mi East 6.9 mph - N/A   Haze
2:30 AM 78.8 °F - 68.0 °F 69% 29.83 in 2.5 mi East 8.1 mph - N/A   Haze
3:00 AM 78.8 °F - 68.0 °F 69% 29.83 in 2.5 mi East 5.8 mph - N/A   Haze
3:30 AM 78.8 °F - 68.0 °F 69% 29.83 in 2.5 mi East 5.8 mph - N/A   Haze
4:00 AM 78.8 °F - 68.0 °F 69% 29.83 in 2.5 mi East 3.5 mph - N/A   Haze
4:30 AM 78.8 °F - 68.0 °F 69% 29.83 in 2.5 mi East 3.5 mph - N/A   Haze
5:00 AM 78.8 °F - 68.0 °F 69% 29.83 in 2.5 mi ENE 3.5 mph - N/A   Haze
5:30 AM 77.0 °F - 68.0 °F 74% 29.83 in 2.5 mi East 3.5 mph - N/A   Haze
6:00 AM 77.0 °F - 68.0 °F 74% 29.83 in 2.5 mi ENE 3.5 mph - N/A   Haze
6:30 AM 77.0 °F - 69.8 °F 78% 29.86 in - ENE 3.5 mph - N/A   Scattered Clouds
7:00 AM 78.8 °F - 68.0 °F 69% 29.86 in 2.2 mi ENE 3.5 mph - N/A   Haze
7:30 AM 78.8 °F - 68.0 °F 69% 29.86 in - East 3.5 mph - N/A   Haze
8:00 AM 80.6 °F 83.9 °F 69.8 °F 70% 29.86 in - NE 5.8 mph - N/A   Haze
8:30 AM 82.4 °F 86.3 °F 69.8 °F 66% 29.86 in - ENE 4.6 mph - N/A   Haze
9:30 AM 86.0 °F 90.4 °F 69.8 °F 58% 29.86 in 1.9 mi NE 4.6 mph - N/A   Haze
10:30 AM 91.4 °F 96.8 °F 69.8 °F 49% 29.89 in 1.9 mi ENE 9.2 mph - N/A   Haze
11:00 AM 91.4 °F 95.4 °F 68.0 °F 46% 29.89 in 1.9 mi East 11.5 mph - N/A   Haze
11:30 AM 91.4 °F 95.4 °F 68.0 °F 46% 29.89 in 1.9 mi East 11.5 mph - N/A   Haze
12:00 PM 91.4 °F 95.4 °F 68.0 °F 46% 29.86 in 2.2 mi ESE 12.7 mph - N/A   Haze
12:30 PM 91.4 °F 95.4 °F 68.0 °F 46% 29.83 in 2.2 mi ESE 11.5 mph - N/A   Haze
1:00 PM 91.4 °F 95.4 °F 68.0 °F 46% 29.83 in 2.2 mi ESE 11.5 mph - N/A   Haze
1:30 PM 91.4 °F 95.4 °F 68.0 °F 46% 29.80 in 2.2 mi East 12.7 mph - N/A   Haze
2:00 PM 87.8 °F 91.4 °F 68.0 °F 52% 29.80 in 2.5 mi East 11.5 mph - N/A   Haze
2:30 PM 87.8 °F 91.4 °F 68.0 °F 52% 29.80 in 2.5 mi East 9.2 mph - N/A   Haze
3:00 PM 86.0 °F 89.4 °F 68.0 °F 55% 29.77 in 2.5 mi East 10.4 mph - N/A   Haze
3:30 PM 87.8 °F 92.6 °F 69.8 °F 55% 29.77 in 2.8 mi East 12.7 mph - N/A   Haze
4:00 PM 86.0 °F 90.4 °F 69.8 °F 58% 29.74 in 2.8 mi ESE 15.0 mph - N/A   Haze
5:00 PM 84.2 °F 87.3 °F 68.0 °F 58% 29.74 in 2.5 mi ESE 11.5 mph - N/A   Haze
5:30 PM 82.4 °F 85.4 °F 68.0 °F 62% 29.77 in 2.5 mi ESE 11.5 mph - N/A   Haze
6:00 PM 80.6 °F 83.2 °F 68.0 °F 65% 29.77 in 2.5 mi ESE 9.2 mph - N/A   Haze
6:30 PM 80.6 °F 83.9 °F 69.8 °F 70% 29.77 in 2.2 mi ESE 9.2 mph - N/A   Haze
6:33 PM 78.8 °F - 69.8 °F 74% 29.77 in 2.2 mi ESE 9.2 mph - N/A   Haze
7:30 PM 78.8 °F - 69.8 °F 74% 29.77 in 2.2 mi ESE 9.2 mph - N/A   Haze
8:00 PM 78.8 °F - 68.0 °F 69% 29.80 in 2.2 mi ESE 10.4 mph - N/A   Haze
8:30 PM 77.0 °F - 68.0 °F 74% 29.80 in 2.2 mi ESE 11.5 mph - N/A   Haze
9:00 PM 77.0 °F - 69.8 °F 78% 29.83 in 2.2 mi ESE 10.4 mph - N/A   Partly Cloudy
9:30 PM 77.0 °F - 69.8 °F 78% 29.83 in 2.2 mi ESE 9.2 mph - N/A   Partly Cloudy
10:00 PM 75.2 °F - 69.8 °F 83% 29.83 in 2.2 mi ESE 5.8 mph - N/A   Partly Cloudy
10:30 PM 75.2 °F - 69.8 °F 83% 29.83 in 2.2 mi East 5.8 mph - N/A   Partly Cloudy
11:00 PM 75.2 °F - 69.8 °F 83% 29.83 in 2.2 mi East 6.9 mph - N/A   Partly Cloudy
11:30 PM 75.2 °F - 69.8 °F 83% 29.80 in 2.2 mi East 5.8 mph - N/A   Partly Cloudy